Hourly Data Report for November 18, 2019

SHEARWATER RCS
NOVA SCOTIA
Current Station Operator: ECCC - MSC

44°37'47.000" N
63°30'48.000" W
24.00 m
8205092
71264
AAW

Download Data

Hourly Data (November 2019)
Hourly Data Report for November 18, 2019
TIME
LST
Temp Definition
°C
Dew Point Definition
°C
Rel Hum Definition
%
Precip. Amount Definition
mm

Wind Dir Definition
10's deg

Wind Spd Definition
km/h
Visibility Definition
km
Stn Press Definition
kPa
Hmdx Definition


Wind Chill Definition


Weather Definition


00:00 -0.4 -4.3 75 0.0 4 13   102.35   -5 LegendNANA
01:00 -0.3 -3.5 79 0.0 4 15   102.24   -5 LegendNANA
02:00 -0.4 -3.3 81 0.0 4 13   102.16   -5 LegendNANA
03:00 -0.6 -3.2 82 0.0 3 11   102.13   -4 LegendNANA
04:00 0.6 -2.1 82 0.0 5 15   101.99     LegendNANA
05:00 0.7 -2.0 82 0.0 6 17   101.92     LegendNANA
06:00 1.1 -1.4 84 0.0 5 18   101.86     LegendNANA
07:00 1.7 -0.6 85 0.0 5 21   101.80     LegendNANA
08:00 2.3 -0.1 84 0.0 5 20   101.77     LegendNANA
09:00 3.2 0.6 83 0.0 6 21   101.65     LegendNANA
10:00 4.2 1.2 81 0.0 6 20   101.60     LegendNANA
11:00 5.2 2.0 80 0.0 6 21   101.49     LegendNANA
12:00 5.4 2.4 81 0.0 6 22   101.32     LegendNANA
13:00 5.8 3.9 88 0.0 7 24   101.20     LegendNANA
14:00 5.7 4.3 91 1.0 6 24   101.09     LegendNANA
15:00 5.7 4.4 92 0.4 6 27   100.92     LegendNANA
16:00 5.7 4.3 91 0.0 6 28   100.86     LegendNANA
17:00 5.1 3.9 92 1.1 6 30   100.66     LegendNANA
18:00 4.7 3.5 92 0.2 6 33   100.39     LegendNANA
19:00 4.6 3.4 92 1.2 5 35   100.17     LegendNANA
20:00 4.9 3.7 92 1.6 6 29   100.01     LegendNANA
21:00 5.3 4.1 92 1.5 5 29   99.80     LegendNANA
22:00 5.7 4.4 91 1.6 5 28   99.67     LegendNANA
23:00 6.0 4.7 91 2.4 3 20   99.46     LegendNANA

Notes on Data Quality.

Legend

  • E = Estimated
  • M = Missing
  • NA = Not Available*
  • [empty] = Indicates an unobserved value
Date modified: